Regional Weather Roundup
Issued by NWS Upton, NY

Current Version | Previous Version | Graphics & Text | Print | Product List | Glossary Off
Versions: 1 2 3 4 5 6 7 8 9 10 11 12 13 14 15 16 17 18 19 20 21 22 23 24 25 26 27

000
ASUS41 KOKX 281508
RWROKX

REGIONAL WEATHER ROUNDUP
NATIONAL WEATHER SERVICE NEW YORK NY
1100 AM EDT TUE MAR 28 2017

NOTE: "FAIR" INDICATES FEW OR NO CLOUDS BELOW 12,000 FEET WITH NO
SIGNIFICANT WEATHER AND/OR OBSTRUCTIONS TO VISIBILITY.

NYZ071-072-176-178-NJZ106-104-281600-
NEW YORK CITY METRO AREA

CITY           SKY/WX    TMP DP  RH WIND       PRES   REMARKS
Central Park   LGT RAIN  43  42  97 NE10      29.99S VSB 1
Wall St Helipt CLOUDY    45  43  93 NE8       29.98S
LaGuardia APRT CLOUDY    43  40  89 NE5       29.99R FOG
Kennedy INTL   TSTM      47  45  93 VRB3      30.00R
Breezy Point     N/A     43 N/A N/A E9          N/A
Newark/Liberty HVY RAIN  46  44  93 NE8       29.95F VSB 1/2
Teterboro      DRZL/FOG  44  42  93 E3        29.98R VSB 1
$$

NYZ177-179-078>081-281600-
LONG ISLAND NEW YORK

CITY           SKY/WX    TMP DP  RH WIND       PRES   REMARKS
Jones Beach      N/A     41 N/A N/A E14         N/A
Matinecock PT    N/A     37 N/A N/A E12         N/A  WCI  30
Farmingdale    HVY RAIN  46  45  96 E8        29.96S VSB 1
MacArthur/ISP  CLOUDY    46  44  93 E13       29.95R
Shirley        CLOUDY    46  43  89 MISG      29.97R
Westhampton    CLOUDY    44  41  89 E8G17     29.97R
East Hampton   CLOUDY    43  40  89 E10G20    29.96F
Montauk        NOT AVBL
$$

NYZ052-065-067-281600-
HUDSON VALLEY

CITY           SKY/WX    TMP DP  RH WIND       PRES   REMARKS
White Plains   LGT RAIN  42  40  92 E6        29.96R VSB 1
Newburgh       LGT RAIN  45  45 100 E7        29.96R FOG
Montgomery     CLOUDY    45  43  93 N3        29.93S FOG
Poughkeepsie   CLOUDY    44  41  89 CALM      29.95R
Albany         CLOUDY    49  42  77 S9        29.95R
$$

NJZ001-105-106-008-010-013-015-019>022-104-281600-
NEW JERSEY

CITY           SKY/WX    TMP DP  RH WIND       PRES   REMARKS
Newark/Liberty HVY RAIN  46  44  93 NE8       29.95F VSB 1/2
Teterboro      DRZL/FOG  44  42  93 E3        29.98R VSB 1
Caldwell       HVY RAIN  44  43  96 E5        29.97F VSB 3/4
Somerville     LGT RAIN  47  46  97 N7        29.89F FOG
Linden         CLOUDY    46  44  93 SE9       29.94F
Sussex         LGT RAIN  46  46 100 S3        29.95R VSB 1/2
Andover          N/A     45  44  97 CALM      29.92F
Trenton        CLOUDY    46  45  96 SE8       29.90R
Millville      CLOUDY    57  57 100 E6        29.88S
Atlantic City  LGT RAIN  52  50  93 E7        29.89F
Wrightstown    CLOUDY    48  48 100 E13       29.85F
Toms River     LGT RAIN  47  47 100 NE9       29.90F
Belmar         LGT RAIN  44  43  96 NE12      29.93F
$$

PAZ047>061-062-071-281600-
EASTERN PENNSYLVANIA

CITY           SKY/WX    TMP DP  RH WIND       PRES   REMARKS
Philadelphia   LGT RAIN  51  49  92 VRB5      29.91R
Allentown      LGT RAIN  50  46  86 E12       29.89F VSB 1
Scranton       CLOUDY    55  52  89 NE5       29.88S
$$

CTZ002-004>006-009-010-012-RIZ004-006-007-MAZ004-011-015-281600-
SOUTHERN NEW ENGLAND
 IN CT

CITY           SKY/WX    TMP DP  RH WIND       PRES   REMARKS
Bradley INTL   CLOUDY    42  40  92 E3        30.00S FOG
Hartford       CLOUDY    43  40  89 CALM      29.99F FOG
Danbury        CLOUDY    43  42  97 E7        29.96F
Wtrbury/Oxford FOG       39  37  93 E5        29.97F VSB 1/4
Bridgeport     CLOUDY    42  39  89 E15       29.97R
Meriden        CLOUDY    43  40  89 N5        29.98F FOG
New Haven      CLOUDY    43  40  89 E14       29.96F
Chester        NOT AVBL
Groton         CLOUDY    40  39  97 E10       30.01S FOG     WCI  33
Wilimantic     CLOUDY    44  40  85 SE5       30.01S

 IN RI

CITY           SKY/WX    TMP DP  RH WIND       PRES   REMARKS
Providence     CLOUDY    40  38  93 E5        30.02F
Block Island   CLOUDY    40  39  97 E10       30.02S WCI  33
Westerly       CLOUDY    41  39  93 E10       30.02S
 IN MA

CITY           SKY/WX    TMP DP  RH WIND       PRES   REMARKS
Boston         CLOUDY    39  37  92 E6        30.04F WCI  35
Worcester      FOG       36  35  96 E3        29.99S VSB 1/4
Westfield      CLOUDY    41  40  96 CALM      29.99S FOG
Provincetown   CLOUDY    42  38  85 E8        30.04S
Nantucket      CLOUDY    41  40  96 NE8       30.03R FOG
$$

ANZ330-335-338-340-345-350-353-355-281600-
COASTAL MARINE OBSERVATIONS


STATION/POSITION TIME  SKY/WX   TEMP    WIND        PRES    VSBY  WAVE
                                AIR SEA DIR/SP/G                  HT/PER
                 (UTC)          (F)     (DEG/KT/KT) (MB)    (MI)  (FT/S)
NY HARB ENTRANCE 1350            42 42   70/ 10/ 12 1013.9          3/ 6
20 S FIRE ISLAND 1350            43 42  100/ 14/ 16 1013.1          4/ 6
GREAT SOUTH BAY  NOT AVBL
23 SSW MONTAUK P 1350            41 42              1016.0          4/ 8
15 E BARNEGAT LI 1430               44                N/A           4/17
HUDSON CANYON    1350            46 44   90/  6/  8 1014.1          3/ 7
KINGS POINT      1436            40 39              1014.7
EXECUTION ROCKS  NOT AVBL
CENTRAL LI SOUND 1415            39      80/ 12/ 16   N/A           1
EASTERN LI SOUND NOT AVBL
ROBBINS REEF     1436            43     240/  4/  5 1016.0
$$


>>>>>>>>>>>>>>>>>>>>>>>>>>>> KEY <<<<<<<<<<<<<<<<<<<<<<<<<<<
>                                                          <
>     SKY/WX - Sky Condition/Present Weather               <
>     TMP    - Temperature in Fahrenheit                   <
>     DP     - Dew Point in Fahrenheit                     <
>     RH     - Relative Humidity in Percent                <
>     WIND   - Direction (from) and Speed in MPH           <
>     PRES   - Mean Sea Level Pressure (inches of Hg)      <
>     WCI    - Wind Chill Index                            <
>     VSB    - VISIBILITY IN MILES                         <
>     HX     - HEAT INDEX                                  <
>     TC     - TEMPERATURE IN CELSIUS                      <
>     VRB    - VARIABLE WIND DIRECTION                     <
>                                                          <
>>>>>>>>>>>>>>>>>>>>>>>>>>>> KEY <<<<<<<<<<<<<<<<<<<<<<<<<<<




USA.gov is the U.S. government's official web portal to all federal, state and local government web resources and services.